Location: Unspecified
(0.0000°N, 0.0000°E)
Time: 01:56:07
(UTC+00:00)

Courier 1B Rocket - Visible Passes

Search period start: 16 April 2026 00:00
Search period end: 26 April 2026 00:00
Orbit: 920 x 1201 km, 28.2° (Epoch: 15 April)

Date Brightness Start Highest point End Pass type
(mag) Time Alt. Az. Time Alt. Az. Time Alt. Az.
16 Apr 6.6 03:16:03 28° E 03:16:03 28° E 03:19:06 10° ESE visible
16 Apr 5.6 05:02:28 19° W 05:06:17 38° SSW 05:12:21 10° SE visible
16 Apr 7.5 18:26:07 10° WNW 18:30:34 16° NNW 18:34:53 10° NNE visible
17 Apr 5.1 04:05:39 55° S 04:05:39 55° S 04:11:20 10° SE visible
18 Apr 7.1 03:08:48 17° ESE 03:08:48 17° ESE 03:10:09 10° ESE visible
18 Apr 6.1 04:55:11 20° SW 04:57:22 24° SSW 05:02:28 10° SSE visible
18 Apr 7.8 18:19:32 10° NW 18:21:47 11° NNW 18:24:00 10° N visible
19 Apr 6.2 03:58:17 28° S 03:58:17 28° S 04:01:46 10° SE visible
20 Apr 6.5 04:47:41 15° SSW 04:48:32 16° SSW 04:52:10 10° SSE visible
21 Apr 6.9 03:50:39 14° SSE 03:50:39 14° SSE 03:51:56 10° SSE visible
25 Apr 7.5 20:42:56 10° N 20:44:07 12° N 20:44:07 12° N visible
